Weather History for KLEE - August, 2013

Change the Weather History Date:

Tuesday, August 6, 2013

  Actual Average Record
Temperature  
Mean Temperature 83 °F -  
Max Temperature 91 °F 91 °F 95 °F (1979)
Min Temperature 75 °F 72 °F 60 °F (2006)
Cooling Degree Days 18    
Growing Degree Days 33 (Base 50)    
Moisture  
Dew Point 74 °F    
Average Humidity 77    
Maximum Humidity 94    
Minimum Humidity 59    
Precipitation  
Precipitation 0.00 in - - ()
Sea Level Pressure  
Sea Level Pressure 29.96 in    
Wind  
Wind Speed 3 mph (East)    
Max Wind Speed 12 mph    
Max Gust Speed -    
Visibility 10 miles    
Events      
Averages and records for this station are not official NWS values.
T = Trace of Precipitation, MM = Missing Value Source: NWS Daily Summary

Daily Weather History Graph

Daily Weather History Graph

Search for Another Location

Airport or City:

Trip Planner

Search our weather history database for the weather conditions in past years. The results will help you decide how hot, cold, wet, or windy it might be!

Date:

Astronomy

Aug. 06, 2013 Rise Set
Actual Time 6:51 AM EDT 8:14 PM EDT
Civil Twilight 6:26 AM EDT 8:39 PM EDT
Nautical Twilight 5:55 AM EDT 9:09 PM EDT
Astronomical Twilight 5:24 AM EDT 9:40 PM EDT
Moon 6:36 AM EDT (8/6) 7:55 PM EDT (8/6)
Length of Visible Light 14h 13m
Length of Day
13h 23m
Waning Crescent, 0% of the Moon is Illuminated
Aug 6
Waning Crescent
Aug 6
New
Aug 14
First Quarter
Aug 20
Full
Aug 28
Last Quarter

Hourly Weather History & Observations

Time (EDT) Temp. Heat Index Dew Point Humidity Pressure Visibility Wind Dir Wind Speed Gust Speed Precip Events Conditions
12:53 AM 77.0 °F - 73.0 °F 88% 29.99 in 10.0 mi West 4.6 mph - N/A   Clear
1:53 AM 78.1 °F - 73.0 °F 84% 29.96 in 10.0 mi Calm Calm - N/A   Clear
2:53 AM 77.0 °F - 73.0 °F 88% 29.93 in 10.0 mi NW 3.5 mph - N/A   Clear
3:53 AM 77.0 °F - 73.0 °F 88% 29.92 in 10.0 mi Calm Calm - N/A   Clear
4:53 AM 75.9 °F - 73.9 °F 94% 29.93 in 9.0 mi Calm Calm - N/A   Clear
5:53 AM 75.9 °F - 73.0 °F 91% 29.94 in 10.0 mi Calm Calm - N/A   Clear
6:53 AM 75.9 °F - 73.0 °F 91% 29.95 in 10.0 mi East 3.5 mph - N/A   Mostly Cloudy
7:53 AM 78.1 °F - 75.0 °F 90% 29.97 in 9.0 mi Calm Calm - N/A   Clear
8:53 AM 81.0 °F 86.7 °F 75.0 °F 82% 29.97 in 10.0 mi Calm Calm - N/A   Clear
9:53 AM 82.9 °F 90.2 °F 75.0 °F 77% 29.99 in 10.0 mi Calm Calm - N/A   Clear
10:53 AM 84.9 °F 93.3 °F 75.0 °F 72% 30.00 in 10.0 mi South 3.5 mph - N/A   Clear
11:53 AM 87.1 °F 97.3 °F 75.9 °F 69% 30.00 in 10.0 mi Calm Calm - N/A   Clear
12:53 PM 89.1 °F 100.2 °F 75.9 °F 65% 29.98 in 10.0 mi Variable 4.6 mph - N/A   Clear
1:53 PM 91.0 °F 101.6 °F 75.0 °F 59% 29.97 in 10.0 mi SSE 4.6 mph - N/A   Clear
2:53 PM 91.9 °F 103.9 °F 75.9 °F 59% 29.95 in 10.0 mi South 4.6 mph - N/A   Clear
3:53 PM 87.1 °F 95.4 °F 73.9 °F 65% 29.94 in 10.0 mi North 11.5 mph - N/A   Scattered Clouds
4:53 PM 86.0 °F 92.2 °F 72.0 °F 63% 29.94 in 10.0 mi ESE 10.4 mph - N/A   Partly Cloudy
5:53 PM 87.1 °F 92.8 °F 71.1 °F 59% 29.93 in 10.0 mi East 6.9 mph - N/A   Clear
6:53 PM 84.9 °F 90.7 °F 72.0 °F 65% 29.95 in 10.0 mi NE 5.8 mph - N/A   Clear
7:53 PM 84.0 °F 91.2 °F 73.9 °F 72% 29.95 in 10.0 mi ENE 4.6 mph - N/A   Clear
8:53 PM 82.9 °F 90.8 °F 75.9 °F 79% 29.96 in 10.0 mi East 5.8 mph - N/A   Clear
9:53 PM 82.9 °F 90.8 °F 75.9 °F 79% 29.98 in 10.0 mi East 5.8 mph - N/A   Clear
10:53 PM 82.0 °F 90.2 °F 77.0 °F 85% 30.00 in 10.0 mi East 5.8 mph - N/A   Clear
11:53 PM 81.0 °F 87.9 °F 77.0 °F 88% 29.99 in 10.0 mi East 6.9 mph - N/A   Clear